sat.trackr.live / text

‹ back to catalog

HULIANWANG DIGUI-114

NORAD 66953 · 2025-287A

PAYLOAD ACTIVE UNKNOWN

§ Identity

Operator
Country
PRC
Launch date
2025-12-08
Launch site
TAISC
Launch vehicle
Mass (kg)
RCS (m²)

External: N2YO · Heavens-Above · Gunter

§ Orbital elements

Epoch: 2026-09-20T22:29:16.539072Z

Period
108.73 min
Inclination
86.4889°
Eccentricity
0.0001694
Mean motion
13.24403921 rev/d
Perigee alt
1,166.7 km
Apogee alt
1,169.2 km
Semi-major
7,546.1 km
B*
8.5857e-5
RAAN
249.9937°
Arg perigee
82.6460°
Mean anomaly
277.4866°
Rev number
3,801

§ Raw data

HULIANWANG DIGUI-1141 66953U 25287A   26263.93699698  .00000052  00000+0  85857-4 0  99942 66953  86.4889 249.9937 0001694  82.6460 277.4866 13.24403921 38014

JSON: /api/v1/satellites/66953 · /tle

For live sub-satellite position, see the globe view (requires WebGL).

§ Visibility from observer

Set your observer location to see the next 7 days of passes ≥ 10°. The values pass through the URL so the page stays shareable.

No JS? Fill the form by hand. The geolocation button needs JavaScript.